Find Starlink 4290

NORAD ID: 53006 Int'l Des: 2022-076 Owner: SPXS Country: US Constellation: starlink operational
LEOCIRCULAR

当前视图

正在加载3D地球...

About Starlink 4290

Starlink 4290 (NORAD 53006) is a starlink constellation satellite (v1.5) launched Jul 7, 2022 by SPXS of US. It operates in LEO, CIRCULAR orbit with a mass of 297.00 kg.

关于 Starlink 4290

正在加载描述...

即将过境

Passes for default location (London). Set your location on the main map for personalized predictions.

高度历史

Loading altitude history...

两行轨道根数

1 53006U 22076W 26171.41668980 .00081511 00000-0 47554-2 0 9993
2 53006 53.1592 352.8315 0000672 66.4251 359.8704 15.11247580 5675
Epoch: Jun 20, 2026 • Age: 47 hours

当前状态

高度 550.3 km
速度 7.59 km/s
星下点 -52.91°S, 159.76°W
发射日期 Jul 7, 2022
运行时间 3.9 years
类型 internet

技术详情

分类 Payload
质量 297.00 kg
干质量 275.00 kg
总质量 297.00 kg
长度 0.20 m
直径 2.80 m
跨度 9.00 m
形状 Box + pan
制造商 SPXS
平台类型 Starlink
阶段状态 In Orbit
所有者/国家 SPXS/US

Most Searched